| time (UTC) | temp F | wind direction | speed MPH | gust MPH | rain 1hr in | rain 24hr in | rain mn in | humidity % | barometer mb |
| 20260503220304 | 72 | 265 | 11.0 | 20.0 | 0.00 | 0.00 | 0.00 | 15 | 1010.4 |
| 20260503215804 | 72 | 242 | 10.0 | 21.0 | 0.00 | 0.00 | 0.00 | 16 | 1010.4 |
| 20260503213304 | 73 | 185 | 10.0 | 18.0 | 0.00 | 0.00 | 0.00 | 16 | 1010.4 |
| 20260503212804 | 73 | 243 | 5.0 | 10.0 | 0.00 | 0.00 | 0.00 | 15 | 1010.4 |
| 20260503212305 | 73 | 245 | 3.0 | 5.0 | 0.00 | 0.00 | 0.00 | 15 | 1010.4 |
| 20260503210804 | 73 | 328 | 6.0 | 13.0 | 0.00 | 0.00 | 0.00 | 15 | 1010.4 |
| 20260503205805 | 73 | 309 | 7.0 | 12.0 | 0.00 | 0.00 | 0.00 | 15 | 1010.4 |
| 20260503205305 | 73 | 297 | 7.0 | 18.0 | 0.00 | 0.00 | 0.00 | 15 | 1010.4 |
| 20260503204304 | 76 | 320 | 6.0 | 13.0 | 0.00 | 0.00 | 0.00 | 14 | 1010.4 |
| 20260503203804 | 76 | 349 | 9.0 | 16.0 | 0.00 | 0.00 | 0.00 | 15 | 1010.4 |
| 20260503203305 | 76 | 326 | 6.0 | 15.0 | 0.00 | 0.00 | 0.00 | 14 | 1010.4 |
| 20260503200805 | 76 | 308 | 7.0 | 15.0 | 0.00 | 0.00 | 0.00 | 15 | 1010.4 |
| 20260503195805 | 75 | 321 | 6.0 | 12.0 | 0.00 | 0.00 | 0.00 | 14 | 1010.4 |
| 20260503194805 | 75 | 295 | 5.0 | 14.0 | 0.00 | 0.00 | 0.00 | 14 | 1010.4 |
| 20260503194304 | 74 | 355 | 9.0 | 13.0 | 0.00 | 0.00 | 0.00 | 15 | 1010.4 |
| 20260503193804 | 74 | 352 | 7.0 | 12.0 | 0.00 | 0.00 | 0.00 | 15 | 1010.4 |
| 20260503192805 | 77 | 0 | 11.0 | 18.0 | 0.00 | 0.00 | 0.00 | 14 | 1010.4 |
| 20260503191805 | 77 | 310 | 13.0 | 20.0 | 0.00 | 0.00 | 0.00 | 14 | 1010.4 |
| 20260503191304 | 75 | 348 | 10.0 | 20.0 | 0.00 | 0.00 | 0.00 | 15 | 1010.4 |
| 20260503190805 | 76 | 343 | 11.0 | 18.0 | 0.00 | 0.00 | 0.00 | 14 | 1010.4 |
| 20260503190304 | 75 | 324 | 8.0 | 14.0 | 0.00 | 0.00 | 0.00 | 16 | 1010.4 |
| 20260503185305 | 77 | 266 | 10.0 | 15.0 | 0.00 | 0.00 | 0.00 | 13 | 1010.4 |
| 20260503184805 | 76 | 336 | 10.0 | 20.0 | 0.00 | 0.00 | 0.00 | 13 | 1010.4 |
| 20260503184305 | 77 | 311 | 10.0 | 20.0 | 0.00 | 0.00 | 0.00 | 14 | 1010.4 |
| 20260503183304 | 76 | 298 | 10.0 | 17.0 | 0.00 | 0.00 | 0.00 | 14 | 1010.4 |
| 20260503182804 | 76 | 304 | 7.0 | 15.0 | 0.00 | 0.00 | 0.00 | 13 | 1010.4 |
| 20260503182305 | 75 | 265 | 10.0 | 16.0 | 0.00 | 0.00 | 0.00 | 13 | 1010.4 |
| 20260503181305 | 75 | 269 | 5.0 | 15.0 | 0.00 | 0.00 | 0.00 | 14 | 1010.4 |
| 20260503180305 | 74 | 317 | 9.0 | 16.0 | 0.00 | 0.00 | 0.00 | 14 | 1010.4 |
| 20260503175804 | 74 | 300 | 8.0 | 14.0 | 0.00 | 0.00 | 0.00 | 16 | 1010.4 |
| 20260503172804 | 71 | 291 | 4.0 | 12.0 | 0.00 | 0.00 | 0.00 | 17 | 1010.4 |
| 20260503171805 | 70 | 261 | 7.0 | 13.0 | 0.00 | 0.00 | 0.00 | 17 | 1010.4 |
| 20260503150805 | 59 | 164 | 2.0 | 7.0 | 0.00 | 0.00 | 0.00 | 33 | 1010.3 |
| 20260503130804 | 49 | 168 | 0.0 | 3.0 | 0.00 | 0.00 | 0.00 | 47 | 1010.3 |
| 20260503090304 | 46 | 165 | 3.0 | 5.0 | 0.00 | 0.00 | 0.00 | 37 | 1010.3 |
| 20260503081304 | 45 | 215 | 1.0 | 1.0 | 0.00 | 0.00 | 0.00 | 36 | 1010.3 |
| 20260503080305 | 45 | 215 | 1.0 | 2.0 | 0.00 | 0.00 | 0.00 | 36 | 1010.3 |
| 20260503072306 | 45 | 167 | 1.0 | 2.0 | 0.00 | 0.00 | 0.00 | 41 | 1010.3 |
| 20260503071804 | 45 | 167 | 1.0 | 3.0 | 0.00 | 0.00 | 0.00 | 42 | 1010.3 |
| 20260503070304 | 45 | 238 | 0.0 | 2.0 | 0.00 | 0.00 | 0.00 | 43 | 1010.3 |
| 20260503060304 | 48 | 238 | 1.0 | 2.0 | 0.00 | 0.00 | 0.00 | 38 | 1010.3 |
| 20260503054304 | 49 | 238 | 0.0 | 1.0 | 0.00 | 0.00 | 0.00 | 36 | 1010.3 |
| 20260503053805 | 49 | 238 | 0.0 | 0.0 | 0.00 | 0.00 | 0.00 | 36 | 1010.3 |
| 20260503052305 | 49 | 238 | 1.0 | 2.0 | 0.00 | 0.00 | 0.00 | 34 | 1010.3 |
| 20260503051804 | 50 | 290 | 1.0 | 2.0 | 0.00 | 0.00 | 0.00 | 34 | 1010.3 |
| 20260503051304 | 50 | 290 | 1.0 | 1.0 | 0.00 | 0.00 | 0.00 | 33 | 1010.3 |
| 20260503050804 | 50 | 290 | 1.0 | 2.0 | 0.00 | 0.00 | 0.00 | 34 | 1010.3 |
| 20260503050304 | 51 | 290 | 1.0 | 3.0 | 0.00 | 0.00 | 0.00 | 32 | 1010.3 |
| 20260503044804 | 53 | 191 | 2.0 | 5.0 | 0.00 | 0.00 | 0.00 | 31 | 1010.3 |
| 20260503044305 | 52 | 176 | 1.0 | 3.0 | 0.00 | 0.00 | 0.00 | 31 | 1010.3 |
| 20260503043804 | 52 | 162 | 2.0 | 5.0 | 0.00 | 0.00 | 0.00 | 31 | 1010.3 |
| 20260503043304 | 52 | 162 | 1.0 | 2.0 | 0.00 | 0.00 | 0.00 | 29 | 1010.3 |
| 20260503042804 | 53 | 132 | 1.0 | 2.0 | 0.00 | 0.00 | 0.00 | 29 | 1010.3 |
| 20260503042305 | 53 | 132 | 0.0 | 0.0 | 0.00 | 0.00 | 0.00 | 28 | 1010.3 |
| 20260503040805 | 54 | 132 | 1.0 | 2.0 | 0.00 | 0.00 | 0.00 | 26 | 1010.3 |
| 20260503040304 | 54 | 131 | 2.0 | 5.0 | 0.00 | 0.00 | 0.00 | 25 | 1010.3 |
| 20260503035305 | 54 | 110 | 1.0 | 2.0 | 0.00 | 0.00 | 0.00 | 24 | 1010.3 |
| 20260503033305 | 54 | 80 | 1.0 | 2.0 | 0.00 | 0.00 | 0.00 | 24 | 1010.3 |
| 20260503032305 | 55 | 71 | 0.0 | 2.0 | 0.00 | 0.00 | 0.00 | 23 | 1010.3 |
| 20260503031805 | 55 | 71 | 0.0 | 1.0 | 0.00 | 0.00 | 0.00 | 24 | 1010.3 |
| 20260503031304 | 55 | 71 | 1.0 | 3.0 | 0.00 | 0.00 | 0.00 | 23 | 1010.3 |
| 20260503030805 | 55 | 58 | 0.0 | 0.0 | 0.00 | 0.00 | 0.00 | 22 | 1010.3 |
| 20260503030305 | 56 | 58 | 0.0 | 0.0 | 0.00 | 0.00 | 0.00 | 22 | 1010.3 |
| 20260503025804 | 56 | 58 | 0.0 | 0.0 | 0.00 | 0.00 | 0.00 | 21 | 1010.3 |
| 20260503025305 | 56 | 58 | 0.0 | 0.0 | 0.00 | 0.00 | 0.00 | 21 | 1010.3 |
| 20260503024805 | 57 | 58 | 0.0 | 0.0 | 0.00 | 0.00 | 0.00 | 20 | 1010.3 |
| 20260503024304 | 57 | 58 | 0.0 | 0.0 | 0.00 | 0.00 | 0.00 | 19 | 1010.3 |
| 20260503023805 | 58 | 58 | 0.0 | 0.0 | 0.00 | 0.00 | 0.00 | 19 | 1010.3 |
| 20260503022305 | 59 | 58 | 0.0 | 0.0 | 0.00 | 0.00 | 0.00 | 17 | 1010.3 |
| 20260503020805 | 62 | 58 | 0.0 | 1.0 | 0.00 | 0.00 | 0.00 | 14 | 1010.3 |
| 20260503015804 | 64 | 58 | 1.0 | 3.0 | 0.00 | 0.00 | 0.00 | 13 | 1010.3 |
| 20260503014804 | 66 | 58 | 1.0 | 3.0 | 0.00 | 0.00 | 0.00 | 11 | 1010.3 |
| 20260503013804 | 67 | 85 | 3.0 | 5.0 | 0.00 | 0.00 | 0.00 | 11 | 1010.3 |
| 20260503013304 | 67 | 72 | 3.0 | 5.0 | 0.00 | 0.00 | 0.00 | 11 | 1010.3 |
| 20260503012305 | 68 | 91 | 3.0 | 6.0 | 0.00 | 0.00 | 0.00 | 9 | 1010.3 |
| 20260503010804 | 69 | 149 | 4.0 | 9.0 | 0.00 | 0.00 | 0.00 | 9 | 1010.3 |
| 20260503010304 | 69 | 200 | 3.0 | 6.0 | 0.00 | 0.00 | 0.00 | 8 | 1010.3 |
| 20260503004804 | 69 | 57 | 6.0 | 10.0 | 0.00 | 0.00 | 0.00 | 8 | 1010.3 |
| 20260503003804 | 70 | 87 | 3.0 | 7.0 | 0.00 | 0.00 | 0.00 | 8 | 1016.9 |
| 20260503001804 | 71 | 87 | 8.0 | 13.0 | 0.00 | 0.00 | 0.00 | 8 | 1016.9 |
| 20260503001304 | 71 | 139 | 3.0 | 10.0 | 0.00 | 0.00 | 0.00 | 9 | 1016.9 |
| 20260502235305 | 71 | 99 | 3.0 | 7.0 | 0.00 | 0.00 | 0.00 | 8 | 1016.9 |
| 20260502234304 | 71 | 94 | 7.0 | 12.0 | 0.00 | 0.00 | 0.00 | 8 | 1016.9 |
| 20260502232804 | 72 | 114 | 6.0 | 12.0 | 0.00 | 0.00 | 0.00 | 8 | 1016.9 |
| 20260502232305 | 72 | 110 | 3.0 | 12.0 | 0.00 | 0.00 | 0.00 | 7 | 1016.9 |
| 20260502231305 | 72 | 103 | 6.0 | 12.0 | 0.00 | 0.00 | 0.00 | 7 | 1016.9 |
| 20260502230305 | 73 | 121 | 5.0 | 13.0 | 0.00 | 0.00 | 0.00 | 8 | 1016.9 |
| 20260502225304 | 72 | 124 | 6.0 | 12.0 | 0.00 | 0.00 | 0.00 | 8 | 1016.9 |
| 20260502224804 | 72 | 120 | 2.0 | 8.0 | 0.00 | 0.00 | 0.00 | 7 | 1016.9 |
| 20260502221805 | 72 | 156 | 5.0 | 13.0 | 0.00 | 0.00 | 0.00 | 7 | 1016.9 |